TimeEDT,TemperatureF,Dew PointF,Humidity,Sea Level PressureIn,VisibilityMPH,Wind Direction,Wind SpeedMPH,Gust SpeedMPH,PrecipitationIn,Events,Conditions,WindDirDegrees,DateUTC
12:15 AM,55.4,51.8,88,29.95,10.0,East,8.1,-,N/A,,Overcast,90,2013-04-28 04:15:00
12:35 AM,55.4,51.8,88,29.95,10.0,East,8.1,-,N/A,,Overcast,80,2013-04-28 04:35:00
12:55 AM,55.4,51.8,88,29.94,10.0,East,6.9,-,N/A,,Overcast,80,2013-04-28 04:55:00
1:15 AM,55.4,51.8,88,29.93,10.0,East,5.8,-,N/A,,Overcast,80,2013-04-28 05:15:00
1:35 AM,55.4,51.8,88,29.93,10.0,East,5.8,-,N/A,,Overcast,100,2013-04-28 05:35:00
1:55 AM,55.4,51.8,88,29.92,10.0,ESE,5.8,-,N/A,,Overcast,110,2013-04-28 05:55:00
2:15 AM,55.4,51.8,88,29.91,10.0,East,8.1,-,N/A,,Overcast,100,2013-04-28 06:15:00
2:35 AM,55.4,51.8,88,29.92,10.0,SSE,4.6,-,N/A,,Overcast,150,2013-04-28 06:35:00
2:55 AM,55.4,51.8,88,29.92,10.0,SE,4.6,-,N/A,,Overcast,130,2013-04-28 06:55:00
3:15 AM,55.4,51.8,88,29.90,10.0,ESE,8.1,-,N/A,,Overcast,110,2013-04-28 07:15:00
3:35 AM,55.4,51.8,88,29.90,10.0,ESE,8.1,-,N/A,,Overcast,110,2013-04-28 07:35:00
3:55 AM,55.4,51.8,88,29.90,9.0,SE,5.8,-,N/A,,Overcast,140,2013-04-28 07:55:00
4:15 AM,55.4,51.8,88,29.88,10.0,ESE,6.9,-,N/A,,Overcast,120,2013-04-28 08:15:00
4:35 AM,55.4,51.8,88,29.88,10.0,SE,6.9,-,N/A,,Overcast,130,2013-04-28 08:35:00
4:55 AM,55.4,51.8,88,29.87,10.0,SE,10.4,-,N/A,,Overcast,140,2013-04-28 08:55:00
5:15 AM,55.4,53.6,94,29.87,10.0,SSE,5.8,-,N/A,,Overcast,160,2013-04-28 09:15:00
5:35 AM,55.4,53.6,94,29.88,10.0,South,8.1,-,N/A,,Overcast,180,2013-04-28 09:35:00
5:55 AM,55.4,53.6,94,29.88,7.0,SSE,5.8,-,0.01,,Overcast,150,2013-04-28 09:55:00
6:15 AM,55.4,53.6,94,29.88,9.0,South,3.5,-,0.11,,Overcast,170,2013-04-28 10:15:00
6:35 AM,55.4,53.6,94,29.87,10.0,South,6.9,-,0.14,,Overcast,180,2013-04-28 10:35:00
6:55 AM,57.2,53.6,88,29.87,7.0,SSW,5.8,-,0.15,,Overcast,200,2013-04-28 10:55:00
7:15 AM,57.2,53.6,88,29.88,7.0,SSW,5.8,-,0.03,,Overcast,200,2013-04-28 11:15:00
7:35 AM,57.2,55.4,94,29.88,10.0,South,9.2,-,0.03,,Overcast,190,2013-04-28 11:35:00
7:55 AM,57.2,55.4,94,29.89,6.0,SSW,6.9,-,0.07,,Overcast,200,2013-04-28 11:55:00
8:15 AM,57.2,55.4,94,29.89,3.0,SSW,8.1,-,0.02,,Overcast,200,2013-04-28 12:15:00
8:35 AM,57.2,53.6,88,29.89,2.5,SSW,6.9,-,0.03,,Overcast,200,2013-04-28 12:35:00
9:15 AM,57.2,55.4,94,29.89,3.0,SW,9.2,-,0.01,,Overcast,230,2013-04-28 13:15:00
9:35 AM,57.2,55.4,94,29.90,8.0,WSW,8.1,-,0.01,,Overcast,250,2013-04-28 13:35:00
9:55 AM,57.2,55.4,94,29.90,10.0,WSW,9.2,-,0.01,,Overcast,250,2013-04-28 13:55:00
10:15 AM,57.2,53.6,88,29.90,10.0,West,11.5,-,N/A,,Overcast,260,2013-04-28 14:15:00
10:35 AM,57.2,53.6,88,29.91,10.0,WSW,9.2,-,N/A,,Overcast,240,2013-04-28 14:35:00
10:55 AM,57.2,53.6,88,29.91,10.0,WSW,9.2,-,N/A,,Overcast,240,2013-04-28 14:55:00
11:15 AM,57.2,53.6,88,29.92,10.0,SW,15.0,18.4,N/A,,Overcast,220,2013-04-28 15:15:00
11:35 AM,57.2,51.8,82,29.92,10.0,SW,12.7,-,N/A,,Overcast,230,2013-04-28 15:35:00
11:55 AM,57.2,51.8,82,29.92,10.0,WSW,11.5,-,N/A,,Overcast,240,2013-04-28 15:55:00
12:15 PM,57.2,51.8,82,29.92,10.0,WSW,10.4,-,N/A,,Overcast,240,2013-04-28 16:15:00
12:35 PM,57.2,53.6,88,29.92,10.0,SW,9.2,-,N/A,,Overcast,220,2013-04-28 16:35:00
12:55 PM,59.0,53.6,82,29.92,10.0,SW,8.1,-,N/A,,Overcast,230,2013-04-28 16:55:00
1:15 PM,59.0,51.8,77,29.92,10.0,WSW,8.1,-,N/A,,Overcast,240,2013-04-28 17:15:00
1:35 PM,59.0,51.8,77,29.91,10.0,WSW,8.1,-,N/A,,Overcast,240,2013-04-28 17:35:00
1:55 PM,59.0,51.8,77,29.91,10.0,SSW,8.1,-,N/A,,Overcast,210,2013-04-28 17:55:00
2:15 PM,59.0,53.6,82,29.91,10.0,SSW,10.4,-,N/A,,Overcast,210,2013-04-28 18:15:00
2:35 PM,57.2,51.8,82,29.92,10.0,SW,10.4,-,N/A,,Overcast,220,2013-04-28 18:35:00
2:55 PM,60.8,53.6,77,29.92,10.0,SW,13.8,-,N/A,,Mostly Cloudy,220,2013-04-28 18:55:00
3:15 PM,59.0,51.8,77,29.93,10.0,WSW,10.4,-,N/A,,Overcast,250,2013-04-28 19:15:00
3:35 PM,59.0,51.8,77,29.93,10.0,West,16.1,-,N/A,,Overcast,260,2013-04-28 19:35:00
3:55 PM,59.0,51.8,77,29.92,10.0,West,10.4,-,N/A,,Overcast,260,2013-04-28 19:55:00
4:15 PM,60.8,53.6,77,29.92,10.0,West,11.5,-,N/A,,Mostly Cloudy,260,2013-04-28 20:15:00
4:35 PM,57.2,51.8,82,29.92,10.0,West,13.8,20.7,N/A,,Overcast,270,2013-04-28 20:35:00
4:55 PM,57.2,51.8,82,29.91,9.0,West,13.8,-,N/A,,Overcast,270,2013-04-28 20:55:00
5:15 PM,55.4,51.8,88,29.90,5.0,West,10.4,-,N/A,,Overcast,270,2013-04-28 21:15:00
5:35 PM,57.2,53.6,88,29.90,10.0,WSW,11.5,-,N/A,,Overcast,250,2013-04-28 21:35:00
5:55 PM,57.2,51.8,82,29.91,10.0,WSW,11.5,-,N/A,,Overcast,250,2013-04-28 21:55:00
6:15 PM,57.2,51.8,82,29.92,10.0,West,11.5,-,N/A,,Overcast,260,2013-04-28 22:15:00
6:35 PM,57.2,51.8,82,29.92,10.0,West,12.7,-,N/A,,Overcast,270,2013-04-28 22:35:00
6:55 PM,55.4,51.8,88,29.92,10.0,West,9.2,-,N/A,,Overcast,260,2013-04-28 22:55:00
7:15 PM,55.4,51.8,88,29.92,10.0,West,9.2,-,N/A,,Overcast,270,2013-04-28 23:15:00
7:35 PM,55.4,51.8,88,29.92,10.0,West,8.1,-,N/A,,Overcast,260,2013-04-28 23:35:00
7:55 PM,55.4,51.8,88,29.92,10.0,WSW,10.4,-,N/A,,Overcast,250,2013-04-28 23:55:00
8:15 PM,55.4,51.8,88,29.92,10.0,West,9.2,-,N/A,,Overcast,270,2013-04-29 00:15:00
8:35 PM,55.4,51.8,88,29.92,9.0,West,9.2,-,N/A,,Overcast,270,2013-04-29 00:35:00
8:55 PM,55.4,51.8,88,29.93,9.0,West,8.1,-,N/A,,Overcast,260,2013-04-29 00:55:00
9:15 PM,55.4,51.8,88,29.94,8.0,WSW,10.4,-,N/A,,Overcast,240,2013-04-29 01:15:00
9:35 PM,55.4,51.8,88,29.94,5.0,WSW,6.9,-,N/A,,Overcast,240,2013-04-29 01:35:00
9:55 PM,55.4,51.8,88,29.95,3.0,WSW,6.9,-,N/A,,Overcast,240,2013-04-29 01:55:00
10:15 PM,55.4,51.8,88,29.96,4.0,SW,5.8,-,N/A,,Overcast,220,2013-04-29 02:15:00
10:35 PM,55.4,51.8,88,29.96,6.0,SSW,5.8,-,N/A,,Mostly Cloudy,210,2013-04-29 02:35:00
10:55 PM,55.4,51.8,88,29.96,7.0,SW,4.6,-,N/A,,Mostly Cloudy,220,2013-04-29 02:55:00
11:15 PM,55.4,51.8,88,29.96,7.0,WSW,5.8,-,N/A,,Scattered Clouds,250,2013-04-29 03:15:00
11:35 PM,55.4,51.8,88,29.96,7.0,SSW,4.6,-,N/A,,Scattered Clouds,200,2013-04-29 03:35:00
11:55 PM,55.4,51.8,88,29.96,7.0,SW,3.5,-,N/A,,Mostly Cloudy,230,2013-04-29 03:55:00